Total_Precipitation_Accumulation
0.11 0.05 0.05 0.06 0.05 0.05 0.05 0.07 0.10 0.13 0.14 0.15 0.17 0.17 0.17 0.15 0.14 0.14 0.13 0.12 0.14 0.18 0.23 0.29 0.32 0.37 0.41 0.40 0.30 0.20 0.15 0.13 0.11 0.09 0.10 0.12 0.14 0.16 0.21 0.19 0.20 0.16 0.12
0.08 0.04 0.06 0.06 0.07 0.07 0.06 0.07 0.10 0.12 0.13 0.13 0.12 0.12 0.13 0.13 0.13 0.14 0.14 0.16 0.19 0.23 0.23 0.24 0.28 0.32 0.33 0.28 0.21 0.14 0.11 0.10 0.13 0.17 0.22 0.27 0.32 0.30 0.34 0.30 0.31 0.26 0.11
0.07 0.05 0.05 0.06 0.08 0.09 0.08 0.08 0.09 0.12 0.15 0.16 0.15 0.13 0.11 0.11 0.11 0.11 0.13 0.16 0.23 0.27 0.27 0.24 0.23 0.24 0.24 0.19 0.14 0.10 0.10 0.13 0.19 0.28 0.48 0.59 0.57 0.51 0.47 0.41 0.39 0.27 0.13
0.09 0.07 0.06 0.06 0.08 0.10 0.10 0.11 0.12 0.14 0.16 0.20 0.21 0.19 0.16 0.13 0.12 0.13 0.14 0.16 0.22 0.26 0.24 0.20 0.17 0.16 0.14 0.10 0.09 0.09 0.11 0.17 0.27 0.41 0.77 0.72 0.63 0.55 0.46 0.44 0.46 0.40 0.30
0.12 0.07 0.06 0.05 0.07 0.10 0.12 0.14 0.15 0.18 0.22 0.25 0.27 0.27 0.21 0.15 0.13 0.16 0.19 0.19 0.21 0.25 0.26 0.22 0.16 0.12 0.09 0.09 0.09 0.10 0.13 0.21 0.37 0.64 1.00 1.10 1.03 0.82 0.55 0.45 0.46 0.47 0.46
0.16 0.14 0.10 0.10 0.09 0.12 0.14 0.16 0.20 0.24 0.28 0.33 0.35 0.33 0.25 0.17 0.16 0.20 0.24 0.25 0.26 0.29 0.34 0.29 0.25 0.18 0.13 0.11 0.11 0.14 0.20 0.33 0.46 0.76 1.08 1.31 1.18 0.96 0.64 0.47 0.41 0.49 0.51
0.27 0.24 0.18 0.15 0.12 0.14 0.14 0.15 0.19 0.24 0.29 0.36 0.39 0.34 0.27 0.21 0.19 0.21 0.27 0.29 0.31 0.34 0.33 0.29 0.25 0.19 0.18 0.18 0.19 0.24 0.34 0.49 0.59 0.85 1.11 1.10 1.08 0.91 0.69 0.57 0.45 0.39 0.41
0.32 0.26 0.19 0.17 0.15 0.20 0.25 0.21 0.20 0.23 0.28 0.36 0.41 0.37 0.29 0.24 0.25 0.30 0.31 0.34 0.37 0.34 0.29 0.26 0.22 0.19 0.21 0.27 0.31 0.35 0.43 0.50 0.51 0.75 0.97 1.05 0.88 0.78 0.74 0.65 0.54 0.43 0.37
0.38 0.33 0.26 0.25 0.21 0.21 0.22 0.21 0.24 0.25 0.28 0.34 0.39 0.42 0.35 0.29 0.36 0.41 0.41 0.42 0.45 0.39 0.33 0.30 0.29 0.24 0.28 0.35 0.33 0.33 0.38 0.43 0.43 0.66 0.88 1.14 0.82 0.80 0.81 0.63 0.50 0.44 0.39
0.85 0.87 0.63 0.50 0.38 0.29 0.24 0.24 0.26 0.27 0.30 0.33 0.34 0.35 0.35 0.35 0.39 0.43 0.39 0.40 0.40 0.33 0.29 0.29 0.30 0.28 0.25 0.23 0.21 0.23 0.27 0.26 0.31 0.51 0.92 0.99 0.85 0.92 0.94 0.74 0.58 0.50 0.46
1.40 1.50 1.17 0.77 0.61 0.60 0.47 0.34 0.34 0.31 0.34 0.33 0.31 0.34 0.40 0.54 0.66 0.67 0.47 0.45 0.40 0.34 0.31 0.31 0.28 0.25 0.20 0.18 0.22 0.25 0.24 0.20 0.39 0.60 0.80 0.91 0.98 1.13 1.13 0.92 0.73 0.63 0.54
1.75 1.69 1.52 1.06 1.08 1.22 0.92 0.71 0.59 0.49 0.48 0.44 0.53 0.48 0.61 0.94 1.05 0.81 0.77 0.61 0.54 0.49 0.44 0.41 0.39 0.33 0.27 0.27 0.33 0.32 0.25 0.28 0.54 0.68 0.81 1.05 1.16 1.27 1.22 0.98 0.80 0.71 0.65
1.95 1.56 1.29 1.19 1.11 1.25 1.22 1.09 0.97 0.90 0.96 0.94 0.92 0.87 1.02 1.09 0.95 0.84 0.98 0.86 0.78 0.69 0.68 0.72 0.59 0.48 0.48 0.55 0.56 0.47 0.43 0.48 0.61 0.68 0.85 1.14 1.30 1.40 1.40 1.17 0.93 0.81 0.78
1.77 1.58 1.47 1.46 1.36 1.35 1.56 1.56 1.47 1.43 1.32 1.17 1.15 1.10 1.28 1.40 1.34 1.37 1.40 1.34 1.39 1.32 1.24 1.09 0.93 0.77 0.69 0.65 0.62 0.66 0.72 0.71 0.78 0.89 1.16 1.29 1.32 1.34 1.37 1.26 1.15 1.05 0.96
1.91 1.72 1.61 1.65 1.63 1.55 1.78 1.94 1.78 1.74 1.54 1.37 1.32 1.34 1.42 1.48 1.54 1.67 1.67 1.78 1.73 1.61 1.42 1.26 1.07 1.05 0.97 0.86 0.81 0.78 0.88 1.00 1.07 1.22 1.28 1.36 1.33 1.29 1.36 1.43 1.39 1.33 1.21
2.20 1.95 1.71 1.69 1.59 1.55 1.66 1.81 1.81 1.74 1.77 1.73 1.67 1.59 1.58 1.69 1.87 1.90 1.91 1.87 1.74 1.59 1.55 1.52 1.39 1.36 1.28 1.20 1.06 1.05 1.06 1.09 1.20 1.31 1.40 1.51 1.27 1.16 1.30 1.50 1.55 1.55 1.54
2.36 2.29 2.01 1.87 1.82 1.78 1.73 1.72 1.71 1.78 1.99 1.96 1.99 2.00 1.83 1.75 1.86 1.94 2.06 2.00 1.87 1.78 1.74 1.65 1.64 1.61 1.50 1.41 1.36 1.30 1.27 1.25 1.22 1.26 1.46 1.61 1.55 1.41 1.38 1.44 1.53 1.58 1.66
2.81 2.68 2.14 1.80 1.96 2.05 2.10 2.07 2.14 2.19 2.31 2.23 2.07 2.15 2.10 2.08 2.00 2.00 1.99 1.91 1.83 1.79 1.94 1.98 1.94 1.89 1.78 1.70 1.66 1.50 1.48 1.47 1.38 1.35 1.42 1.51 1.70 1.69 1.58 1.45 1.42 1.50 1.60
3.33 3.07 2.40 2.10 2.18 2.29 2.35 2.53 2.73 2.83 2.82 2.73 2.58 2.51 2.37 2.43 2.37 2.32 2.37 2.26 2.13 2.18 2.20 2.05 2.10 2.14 2.14 2.03 1.76 1.63 1.52 1.52 1.49 1.40 1.42 1.40 1.55 1.73 1.71 1.59 1.48 1.44 1.55
3.42 3.25 2.79 2.50 2.61 2.59 2.59 2.79 2.97 3.04 3.03 3.10 3.14 3.09 2.89 2.78 2.78 2.85 2.92 2.85 2.64 2.60 2.61 2.62 2.53 2.29 2.13 2.03 1.82 1.78 1.67 1.53 1.47 1.41 1.35 1.36 1.39 1.38 1.50 1.49 1.54 1.50 1.48
2.73 2.73 2.79 2.77 2.80 2.86 2.87 2.95 3.20 3.38 3.40 3.37 3.48 3.54 3.40 3.31 3.32 3.43 3.42 3.35 3.10 2.91 2.81 2.75 2.64 2.45 2.21 2.01 1.99 1.93 1.75 1.57 1.51 1.44 1.35 1.32 1.24 1.19 1.27 1.39 1.33 1.28 1.31
2.47 2.64 2.75 2.68 2.86 3.12 3.45 3.86 4.20 4.43 4.39 4.24 4.18 4.10 3.95 3.85 3.75 3.66 3.65 3.47 3.23 3.06 2.86 2.68 2.60 2.49 2.31 2.15 2.08 2.12 1.89 1.72 1.45 1.29 1.30 1.24 1.16 1.12 1.10 1.10 1.18 1.21 1.19
2.14 2.42 2.61 2.78 3.17 3.63 4.14 4.82 5.27 5.19 4.89 4.76 4.51 4.40 4.16 3.88 3.81 3.81 3.58 3.39 3.18 2.99 2.82 2.63 2.55 2.50 2.31 2.19 2.11 2.16 2.00 1.82 1.59 1.42 1.25 1.15 1.12 1.13 1.11 1.08 1.10 1.19 1.20
1.93 2.30 2.62 2.98 3.47 4.07 4.56 5.04 5.34 5.38 5.18 4.97 4.55 4.18 3.80 3.46 3.27 3.19 3.11 2.92 2.80 2.67 2.52 2.38 2.36 2.29 2.16 2.01 1.92 1.75 1.65 1.58 1.56 1.43 1.27 1.13 1.10 1.14 1.14 1.10 1.10 1.14 1.19
1.73 2.17 2.55 2.90 3.47 4.02 4.54 4.90 5.11 5.24 5.14 4.83 4.21 3.64 3.27 2.97 2.76 2.55 2.38 2.28 2.27 2.18 1.99 1.83 1.78 1.76 1.69 1.61 1.58 1.49 1.41 1.35 1.34 1.30 1.25 1.16 1.09 1.02 1.00 1.01 1.02 1.04 1.07
1.50 1.87 2.24 2.59 3.26 3.90 4.43 4.80 5.04 5.09 4.83 4.29 3.70 3.20 2.88 2.63 2.40 2.20 2.07 1.91 1.81 1.70 1.53 1.37 1.29 1.29 1.34 1.35 1.33 1.28 1.16 1.13 1.14 1.16 1.11 1.05 1.03 0.99 0.95 0.94 0.95 0.96 0.98